sat.trackr.live / text

‹ back to catalog

ONEWEB-0045

NORAD 45151 · 2020-008W

PAYLOAD ACTIVE UNKNOWN

§ Identity

Operator
Country
UK
Launch date
2020-02-06
Launch site
TYMSC
Launch vehicle
Mass (kg)
RCS (m²)

Purposes: comms

External: N2YO · Heavens-Above · Gunter

§ Orbital elements

Epoch: 2026-09-13T01:22:51.811968Z

Period
109.80 min
Inclination
87.8969°
Eccentricity
0.0001924
Mean motion
13.11416915 rev/d
Perigee alt
1,216.2 km
Apogee alt
1,219.1 km
Semi-major
7,595.8 km
B*
1.5951e-3
RAAN
3.5932°
Arg perigee
100.6681°
Mean anomaly
259.4664°
Rev number
32,192

§ Raw data

ONEWEB-00451 45151U 20008W   26256.05754412  .00000578  00000+0  15951-2 0  99972 45151  87.8969   3.5932 0001924 100.6681 259.4664 13.11416915321920

JSON: /api/v1/satellites/45151 · /tle

For live sub-satellite position, see the globe view (requires WebGL).

§ Visibility from observer

Set your observer location to see the next 7 days of passes ≥ 10°. The values pass through the URL so the page stays shareable.

No JS? Fill the form by hand. The geolocation button needs JavaScript.